Regional Weather Roundup
Issued by NWS

Home | Current Version | Previous Version | Text Only | Print | Product List | Glossary On
Versions: 1 2 3 4 5 6 7 8 9 10 11 12 13 14 15 16 17 18 19 20 21 22 23 24 25 26 27 28 29 30 31 32 33 34 35 36 37 38 39 40 41 42 43 44 45 46 47 48 49 50
000
ASUS43 KDTX 212310
RWRMI
MICHIGAN HOURLY REGIONAL WEATHER ROUNDUP
NATIONAL WEATHER SERVICE DETROIT/PONTIAC MI
700 PM EDT MON AUG 21 2017

NOTE: "FAIR" INDICATES FEW OR NO CLOUDS BELOW 12,000 FEET WITH NO
SIGNIFICANT WEATHER AND/OR OBSTRUCTION TO VISIBILITY.

MIZ047>049-052>055-059>063-066>070-074>076-081>083-220000-
SOUTHEAST LOWER MICHIGAN

CITY           SKY/WX    TMP DP  RH WIND       PRES   REMARKS
ADRIAN         MOSUNNY   84  68  58 SW10      30.02F
ALMA           MOSUNNY   81  69  66 S6        29.97S
ANN ARBOR      MOSUNNY   83  70  64 S7        30.00F
BAD AXE        MOSUNNY   80  68  65 S9        29.98F
CARO           CLOUDY    81  68  66 SE5       29.97F
DETROIT CITY   MOSUNNY   84  69  60 S9        29.99F
DETROIT        PTSUNNY   85  72  65 S12       30.00F HX  91
FLINT          MOSUNNY   82  70  66 SW7       29.99F
GROSSE ILE     SUNNY     80  72  77 S6        29.99F
HILLSDALE      PTSUNNY   81  66  61 S5        30.02R
HOWELL         MOSUNNY   82  67  61 S5        30.01R

CITY           SKY/WX    TMP DP  RH WIND       PRES   REMARKS
JACKSON        MOSUNNY   84  67  56 SW9       30.01S
LAMBERTVILLE   MOSUNNY   85  70  59 SW6       29.99F
LANSING        MOSUNNY   84  69  60 SW7       29.99F
LAPEER         FAIR      82  66  58 S5        29.99F
MASON          PTSUNNY   84  71  64 S5        30.00R
MONROE         SUNNY     85  70  59 SW5       29.99F HX  90
MT. CLEMENS    PTSUNNY   80  69  69 SE10      29.98F
PONTIAC        CLOUDY    83  67  58 SE7       29.99F
PORT HOPE        N/A     80  69  69 SE10      29.96F
PORT HURON     MOSUNNY   81  66  61 S5        30.00F
TRI CITIES     MOSUNNY   84  72  67 S8        29.97F
MIDLAND        FAIR      84  68  58 S6        29.95S
TROY           MOSUNNY   85  66  52 SE8       30.01F
SAGINAW HB     PTSUNNY   82  68  61 S10       29.96F
$$
MIZ043>046-050>051-056>058-064>065-071>073-077>080-220000-
SOUTHWEST LOWER MICHIGAN

CITY           SKY/WX    TMP DP  RH WIND       PRES   REMARKS
BATTLE CREEK   CLOUDY    82  70  66 S7        30.01S
BENTON HARBOR  MOSUNNY   82  69  64 S8        29.99R
BIG RAPIDS     CLOUDY    77  68  73 CALM      29.95F
COLDWATER      MOSUNNY   82  66  59 SW5       30.03R
FREMONT        FAIR      77  73  87 S8        29.97R
HOLLAND        CLOUDY    79  72  79 SW6       29.98R
GRAND RAPIDS   CLOUDY    81  72  74 S8        29.97F
IONIA          FAIR      82  69  64 S8        29.97F
KALAMAZOO      CLOUDY    82  66  58 S7        30.00S
LUDINGTON      CLOUDY    73  69  89 SW9       29.95R
MARSHALL       PTSUNNY   83  68  60 SW6       30.02R
MOUNT PLEASANT CLOUDY    85  67  55 S7        29.96S
MUSKEGON       CLOUDY    77  71  82 W7        29.98R
SOUTH HAVEN    CLOUDY    80  73  78 S5        29.99R
$$
MIZ016>042-220000-
NORTHERN LOWER MICHIGAN

CITY           SKY/WX    TMP DP  RH WIND       PRES   REMARKS
ALPENA         SUNNY     81  71  71 SE6       29.95F
BEAVER ISLAND  CLOUDY    74  68  81 CALM      29.94F
BELLAIRE       CLOUDY    78  69  74 CALM      29.92S
CADILLAC       MOSUNNY   80  67  64 S8        29.96F
CHARLEVOIX     MOSUNNY   73  69  87 N3        29.96S
FRANKFORT      MOSUNNY   75  70  84 W3        29.94R
GAYLORD        CLOUDY    80  63  55 S8        29.96F
GRAYLING       CLOUDY    80  65  60 SE7       29.96F
HARBOR SPRINGS CLOUDY    81  68  63 CALM      29.93R
HOUGHTON LAKE  PTSUNNY   80  68  66 S12       29.97F
MANISTEE       CLOUDY    78  72  81 SW6       29.94R
OSCODA         CLOUDY    82  67  60 S12       29.95F
PELLSTON       PTSUNNY   80  66  62 W3        29.94S
ROGERS CITY    SUNNY     72  67  85 CALM      29.95F
TRAVERSE CITY  CLOUDY    82  69  64 CALM      29.90F
$$
MIZ007>008-015-220000-
EASTERN UPPER MICHIGAN

CITY           SKY/WX    TMP DP  RH WIND       PRES   REMARKS
KINROSS        MOSUNNY   76  66  71 S5        29.94S
MACKINAC ISLAN CLOUDY    73  67  79 CALM      29.94R
NEWBERRY       CLOUDY    72  65  78 S6        29.94S
S. S. MARIE    CLOUDY    78  64  61 CALM      29.93S
MUNISING         N/A     66  64  93 NE7       29.92S
$$
MIZ004>006-011>014-085-220000-
CENTRAL UPPER MICHIGAN

CITY           SKY/WX    TMP DP  RH WIND       PRES   REMARKS
MANISTIQUE     PTSUNNY   70  64  81 S6        29.93S
ESCANABA       CLOUDY    71  68  90 SE6       29.92F
MENOMINEE      CLOUDY    76  70  82 SE5       29.91F
SAWYER-GWINN   MOSUNNY   68  57  68 NE6       29.94F
$$
MIZ001>003-009>011-084-220000-
WESTERN UPPER MICHIGAN

CITY           SKY/WX    TMP DP  RH WIND       PRES   REMARKS
IRON MOUNTAIN  CLOUDY    75  65  70 SE6       29.90F
HOUGHTON       CLOUDY    66  56  70 E5        29.92F
COPPER HARBOR    N/A     62  57  83 CALM      29.93S
IRONWOOD       CLOUDY    67  64  90 CALM      29.90F
$$

ABBREVIATIONS USED IN REMARKS
   TC - TEMPERATURE IN CELSIUS
  WCI - WIND CHILL INDEX
   HX - HEAT INDEX
  VSB - VISIBILITY





USA.gov is the U.S. government's official web portal to all federal, state and local government web resources and services.